Home   Weather   Leoben   Past weeks

Flag for Austria Past Weather in Leoben, Styria, Austria — Yesterday and Last 2 Weeks

Now
72 °F

Thunderstorms. Broken clouds.


Feels Like: 74 °F
Forecast: 60 / 71 °F
Wind: 8 mph from Northeast

Location: Zeltweg

Current Time: Jun 24, 2017 at 9:09:08 pm

Latest Report: Jun 24, 2017 at 7:50 pm


Visibility: 12 mi

Pressure: 30.01 "Hg (28.19 "Hg at 540m altitude)

Humidity: 73%

Dew Point: 63 °F

Location of LeobenLocation

Past Weather in Leoben — Graph

°F

Leoben Temperature Yesterday

Maximum temperature yesterday: 88 °F (at 12:20 pm)
Minimum temperature yesterday: 57 °F (at 4:50 am)
Average temperature yesterday: 72 °F

High & Low Weather Summary for the Past Weeks

 TemperatureHumidityPressure
High90 °F (Jun 20, 3:20 pm)100% (Jun 24, 4:50 am)30.33 "Hg (Jun 24, 4:50 am)
Low46 °F (Jun 19, 4:50 am)20% (Jun 19, 3:50 pm)29.95 "Hg (Jun 12, 4:50 pm)
Average71 °F53%30.09 "Hg
* Reported Jun 9 7:50 pm — Jun 24 7:50 pm, Leoben. Weather by CustomWeather, © 2017

Note: Actual official high and low records may vary slightly from our data, if they occured in-between our weather recording intervals... More about our weather records

Advertising

Leoben Weather History for the Previous 24 Hours

Scroll right to see more
 ConditionsComfort  
Time TempWeatherWind HumidityBarometerVisibility
7:50 pm
Sat, Jun 24
72 °FThunderstorms. Broken clouds.8 mph73%30.01 "Hg12 mi
6:50 pm72 °FThunderstorms. Broken clouds.13 mph78%29.98 "Hg19 mi
5:50 pm82 °FThunderstorms. Broken clouds.8 mph48%29.95 "Hg19 mi
4:50 pm86 °FBroken clouds.8 mph40%29.98 "Hg19 mi
3:50 pm90 °FBroken clouds.9 mph26%29.98 "Hg19 mi
2:50 pm90 °FScattered clouds.7 mph26%30.01 "Hg19 mi
1:50 pm88 °FPassing clouds.13 mph27%30.01 "Hg19 mi
12:50 pm86 °FPassing clouds.6 mph33%30.04 "Hg19 mi
11:50 am81 °FPassing clouds.3 mph42%30.07 "Hg19 mi
10:50 am75 °FPassing clouds.3 mph57%30.07 "Hg19 mi
9:50 am70 °FPassing clouds.1 mph73%30.09 "Hg19 mi
8:50 am63 °FPassing clouds.1 mph88%30.12 "Hg12 mi
7:50 am59 °FPartly sunny.1 mph94%30.12 "Hg1 mi
6:50 am57 °FPartly sunny.2 mph100%30.12 "Hg1 mi
5:50 am55 °FLight fog.1 mph100%30.12 "Hg1 mi
4:50 am54 °FLight fog.1 mph100%30.12 "Hg0 mi
1:50 am59 °FPassing clouds.2 mph94%30.09 "Hg19 mi
10:50 pm
Fri, Jun 23
61 °FPassing clouds.3 mph88%30.07 "Hg19 mi
9:50 pm63 °FPassing clouds.3 mph88%30.07 "Hg19 mi
Weather by CustomWeather, © 2017

See weather overviewHow to use our weather pages